Location: Eckley Miners' Village
(40.9930°N, 75.8630°W)
Time: 10:09:17
(UTC-04:00)

Vanguard 1 Rocket - Pass Details

Date: 15 March 2026
Orbit: 654 x 4213 km, 34.3° (Epoch: 11 April)

Event Time Altitude Azimuth Distance (km) Brightness Sun altitude
Rises 06:30:01 0° 218° (SW) 4,411 10.5 -9.3°
Reaches altitude 10° 06:34:31 10° 201° (SSW) 2,887 9.7 -8.5°
Maximum altitude 06:38:34 17° 161° (SSE) 2,002 9.4 -7.7°
Drops below altitude 10° 06:41:48 10° 120° (ESE) 2,216 10.4 -7.1°
Sets 06:44:37 0° 98° (E) 3,001 12.2 -6.6°
